DMSP 5D-2 F13 DEB, 42271

Orbit data source: Space-Track

DMSP 5D-2 F13 DEB, 42271 is space debris in SSO originally from a launch on Fri, 24 Mar 1995 UTC launched from the Air Force Western Test Range (AFWTR). Debris objects in space refer to the collection of defunct objects orbiting the Earth. Examples of debris include non-operational satellites, rocket bodies, and fragments generated from explosions, collisions, or faulty payload assembly.

Loading next visibility...
Identifier
42271, 1995-015GM
Orbit
SSO
Country
Flag of USUS
Related business
Manufacturer
Unknown
Mission
Spacecraft
Bus & Motor
Unknown
Mass
Unknown
Launch date (UTC)
1995-03-24 (31 years ago)
Launch vehicle
Unknown
Launch site
Air Force Western Test Range (AFWTR)
Object type
Payload
Rocket body
Debris
Shape & HBR
Unknown shape, 0.1 m
Radar Cross Section
Small (<0.1 m²)

Expand to show TLE details & history
Last TLE update: 6 days ago

TLE from 6 days ago
0 DMSP 5D-2 F13 DEB
1 42271U 95015GM  26090.15193068  .00065189  00000-0  76182-2 0  9991
2 42271  98.6793 167.0428 0005736 182.4179 177.7006 14.84781078560671
Epoch: 2026-03-31T03:38Z
TLE epoch observation values (Epoch: 2026-03-31T03:38:46.810Z)
Latitude
-0.00008°
Longitude
-76.18545°
Altitude
621.285 km
Speed
7.546 km/s
True Right ascension
11h 08m 10s
True Declination
0° 00' 00"
Sunlit
Object was in full shadow at epoch
Visualization orbit readout
Latitude
Unknown
Longitude
Unknown
Altitude
Unknown
Speed
Unknown
Apparent Right ascension
Unknown
Apparent Declination
Unknown
Sunlit
N/A
Visualization observer readout
Local Sidereal Time
23:14:10
Azimuth
Unknown
Elevation
Unknown
Doppler factor
Unknown
Orbital elements
Apogee altitude
615.353 km
Perigee altitude
607.335 km
Semi-major axis
6,989.481 km
Eccentricity
0.00057
Inclination
98.6793°
RAAN
167.0428°
Arg. of periapsis
182.4179°
True anomaly
177.70324°
Mean anomaly
177.7006°
Eccentric anomaly
177.70192°
Mean motion
3.71429 °/min
Orbital period
96.92 mins
BSTAR
0.0076182
Loading maneuver chart data...
Computing Atmospheric mass density...

Documentation

Showing up to 5 results
|